• In Hungary
  • List of Countries
  • For 7 days
  • Water Temperature
  • Satellite Maps
  • Weather Map
  • News
  • Weather Widgets
  • user-avatar
    Login

    Hourly Weather Sankt Wolfgang im Salzkammergut

    Today, 15 December, Friday

    Time Temperature Precipitation Wind Pressure Humidity
    00:00 +2°C° 0.5 mm 1 mps 697 mmHg 89%
    01:00 +1°C° 0 mm 2 mps 697 mmHg 91%
    02:00 +2°C° 0.3 mm 1 mps 697 mmHg 91%
    03:00 +2°C° 0.3 mm 1 mps 696 mmHg 91%
    04:00 +2°C° 0.3 mm 1 mps 696 mmHg 90%
    05:00 +2°C° 0.8 mm 1 mps 696 mmHg 91%
    06:00 +1°C° 0.8 mm 2 mps 697 mmHg 92%
    07:00 +2°C° 0.8 mm 2 mps 697 mmHg 92%
    08:00 +2°C° 0.6 mm 2 mps 697 mmHg 91%
    09:00 +2°C° 0.6 mm 2 mps 698 mmHg 90%
    10:00 +3°C° 0.6 mm 2 mps 698 mmHg 89%
    11:00 +3°C° 0.3 mm 2 mps 698 mmHg 88%
    12:00 +3°C° 0.3 mm 2 mps 698 mmHg 86%
    13:00 +3°C° 0.3 mm 2 mps 698 mmHg 85%
    14:00 +3°C° 0.2 mm 1 mps 698 mmHg 86%
    15:00 +3°C° 0.2 mm 1 mps 698 mmHg 88%
    16:00 +2°C° 0.2 mm 1 mps 698 mmHg 89%
    17:00 +2°C° 0.3 mm 1 mps 699 mmHg 89%
    18:00 +1°C° 0.3 mm 1 mps 699 mmHg 89%
    19:00 +1°C° 0.3 mm 1 mps 699 mmHg 88%
    20:00 +1°C° 0.4 mm 1 mps 699 mmHg 89%
    21:00 +1°C° 0.4 mm 1 mps 700 mmHg 90%
    22:00 +1°C° 0.4 mm 1 mps 700 mmHg 91%
    23:00 +1°C° 0.4 mm 1 mps 700 mmHg 92%

    Tomorrow, 16 December, Saturday

    Time Temperature Precipitation Wind Pressure Humidity
    00:00 +1°C° 0.4 mm 1 mps 700 mmHg 92%
    01:00 +1°C° 0.4 mm 1 mps 700 mmHg 93%
    02:00 +1°C° 0.2 mm 1 mps 700 mmHg 93%
    03:00 +1°C° 0.2 mm 1 mps 700 mmHg 94%
    04:00 -2°C° 0.2 mm 2 mps 700 mmHg 94%
    05:00 -2°C° 0.1 mm 2 mps 700 mmHg 94%
    06:00 -2°C° 0.1 mm 2 mps 701 mmHg 93%
    07:00 -2°C° 0.1 mm 2 mps 701 mmHg 93%
    08:00 -2°C° 0.1 mm 2 mps 702 mmHg 92%
    09:00 -1°C° 0.1 mm 2 mps 702 mmHg 91%
    10:00 -1°C° 0.1 mm 2 mps 703 mmHg 90%
    11:00 +1°C° 0.1 mm 2 mps 703 mmHg 90%
    12:00 +1°C° 0.1 mm 2 mps 703 mmHg 89%
    13:00 +1°C° 0.1 mm 2 mps 703 mmHg 89%
    14:00 +1°C° 0.2 mm 2 mps 704 mmHg 90%
    15:00 +2°C° 0.2 mm 1 mps 704 mmHg 92%
    16:00 +1°C° 0.2 mm 1 mps 705 mmHg 94%
    17:00 -1°C° 0.3 mm 2 mps 706 mmHg 94%
    18:00 -1°C° 0.3 mm 2 mps 707 mmHg 94%
    19:00 -1°C° 0.3 mm 2 mps 707 mmHg 94%
    20:00 -2°C° 0.4 mm 2 mps 708 mmHg 94%
    21:00 -2°C° 0.4 mm 2 mps 709 mmHg 94%
    22:00 -2°C° 0.4 mm 2 mps 709 mmHg 94%
    23:00 -2°C° 0.3 mm 2 mps 709 mmHg 94%

    Day after tomorrow, 17 December, Sunday

    Time Temperature Precipitation Wind Pressure Humidity
    00:00 -2°C° 0.3 mm 2 mps 710 mmHg 94%
    01:00 -3°C° 0.3 mm 2 mps 710 mmHg 94%
    02:00 -3°C° 0.3 mm 2 mps 710 mmHg 94%
    03:00 -3°C° 0.3 mm 2 mps 710 mmHg 93%
    04:00 -4°C° 0.3 mm 3 mps 711 mmHg 93%
    05:00 -4°C° 0.4 mm 3 mps 711 mmHg 93%
    06:00 -4°C° 0.4 mm 3 mps 712 mmHg 93%
    07:00 -4°C° 0.4 mm 3 mps 712 mmHg 93%
    08:00 -4°C° 0.3 mm 3 mps 713 mmHg 92%
    09:00 -2°C° 0.3 mm 3 mps 713 mmHg 91%
    10:00 -2°C° 0.3 mm 3 mps 714 mmHg 90%
    11:00 -2°C° 0.4 mm 3 mps 714 mmHg 89%
    12:00 -2°C° 0.4 mm 3 mps 714 mmHg 88%
    13:00 -1°C° 0.4 mm 3 mps 714 mmHg 87%
    14:00 -2°C° 0.4 mm 3 mps 714 mmHg 88%
    15:00 -2°C° 0.4 mm 3 mps 715 mmHg 89%
    16:00 -2°C° 0.4 mm 3 mps 715 mmHg 90%
    17:00 -2°C° 0.4 mm 3 mps 716 mmHg 91%
    18:00 -4°C° 0.4 mm 3 mps 716 mmHg 92%
    19:00 -4°C° 0.4 mm 3 mps 717 mmHg 93%
    20:00 -4°C° 0.3 mm 3 mps 717 mmHg 93%
    21:00 -4°C° 0.3 mm 3 mps 718 mmHg 93%
    22:00 -3°C° 0.3 mm 2 mps 718 mmHg 93%
    23:00 -3°C° 0.1 mm 2 mps 718 mmHg 92%

    18 December, Monday

    Time Temperature Precipitation Wind Pressure Humidity
    00:00 -4°C° 0.1 mm 2 mps 718 mmHg 92%
    01:00 -4°C° 0.1 mm 2 mps 718 mmHg 91%
    02:00 -4°C° 0.1 mm 2 mps 718 mmHg 90%
    03:00 -4°C° 0.1 mm 2 mps 717 mmHg 89%
    04:00 -4°C° 0.1 mm 2 mps 717 mmHg 88%
    05:00 -4°C° 0.1 mm 2 mps 717 mmHg 87%
    06:00 -4°C° 0.1 mm 2 mps 716 mmHg 86%
    07:00 -4°C° 0.1 mm 2 mps 716 mmHg 85%
    08:00 -4°C° 0.4 mm 2 mps 715 mmHg 87%
    09:00 -3°C° 0.4 mm 2 mps 715 mmHg 89%
    10:00 -2°C° 0.4 mm 2 mps 715 mmHg 91%
    11:00 -2°C° 0.9 mm 2 mps 714 mmHg 92%
    12:00 -1°C° 0.9 mm 2 mps 714 mmHg 93%
    13:00 +1°C° 0.9 mm 2 mps 714 mmHg 93%
    14:00 +1°C° 0.7 mm 2 mps 714 mmHg 94%
    15:00 +1°C° 0.7 mm 2 mps 714 mmHg 94%
    16:00 +1°C° 0.7 mm 2 mps 714 mmHg 95%
    17:00 +1°C° 0.3 mm 2 mps 715 mmHg 95%
    18:00 +1°C° 0.3 mm 2 mps 716 mmHg 95%
    19:00 -1°C° 0.3 mm 2 mps 716 mmHg 95%
    20:00 -1°C° 0.1 mm 2 mps 717 mmHg 95%
    21:00 -1°C° 0.1 mm 2 mps 718 mmHg 95%
    22:00 -1°C° 0.1 mm 2 mps 718 mmHg 95%
    23:00 -2°C° 0.1 mm 2 mps 719 mmHg 94%

    19 December, Tuesday

    Time Temperature Precipitation Wind Pressure Humidity
    00:00 -2°C° 0.1 mm 2 mps 719 mmHg 94%
    01:00 -3°C° 0.1 mm 2 mps 719 mmHg 94%
    02:00 -3°C° 0.1 mm 2 mps 719 mmHg 93%
    03:00 -3°C° 0.1 mm 2 mps 720 mmHg 93%
    04:00 -3°C° 0.1 mm 2 mps 720 mmHg 93%
    05:00 -3°C° 0.1 mm 2 mps 720 mmHg 92%
    06:00 -3°C° 0.1 mm 2 mps 721 mmHg 91%
    07:00 -3°C° 0.1 mm 2 mps 721 mmHg 90%
    08:00 -3°C° 0.2 mm 2 mps 721 mmHg 90%
    09:00 -2°C° 0.2 mm 2 mps 722 mmHg 90%
    10:00 -2°C° 0.2 mm 2 mps 722 mmHg 90%
    11:00 -1°C° 0.1 mm 2 mps 722 mmHg 91%
    12:00 +1°C° 0.1 mm 2 mps 722 mmHg 92%
    13:00 +1°C° 0.1 mm 2 mps 722 mmHg 92%
    14:00 +2°C° 0 mm 1 mps 722 mmHg 93%
    15:00 +1°C° 0 mm 1 mps 722 mmHg 94%
    16:00 +1°C° 0 mm 1 mps 723 mmHg 94%
    17:00 +1°C° 0 mm 1 mps 723 mmHg 94%
    18:00 0°C° 0 mm 1 mps 723 mmHg 94%
    19:00 -1°C° 0 mm 1 mps 724 mmHg 94%
    20:00 -1°C° 0 mm 1 mps 724 mmHg 94%
    21:00 -1°C° 0 mm 1 mps 724 mmHg 93%
    22:00 -1°C° 0 mm 1 mps 725 mmHg 93%
    23:00 -1°C° 0 mm 1 mps 725 mmHg 93%

    20 December, Wednesday

    Time Temperature Precipitation Wind Pressure Humidity
    00:00 -1°C° 0 mm 1 mps 724 mmHg 92%
    01:00 -1°C° 0 mm 1 mps 724 mmHg 92%
    02:00 -3°C° 0 mm 2 mps 724 mmHg 92%
    03:00 -3°C° 0 mm 2 mps 724 mmHg 92%
    04:00 -3°C° 0 mm 2 mps 724 mmHg 91%
    05:00 -3°C° 0.1 mm 2 mps 724 mmHg 92%
    06:00 -3°C° 0.1 mm 2 mps 724 mmHg 92%
    07:00 -2°C° 0.1 mm 2 mps 724 mmHg 92%
    08:00 -2°C° 0.2 mm 2 mps 724 mmHg 92%
    09:00 -1°C° 0.2 mm 2 mps 724 mmHg 92%
    10:00 +1°C° 0.2 mm 2 mps 724 mmHg 92%
    11:00 +1°C° 0.2 mm 2 mps 724 mmHg 92%
    12:00 +1°C° 0.2 mm 2 mps 724 mmHg 92%
    13:00 +2°C° 0.2 mm 2 mps 723 mmHg 92%
    14:00 +2°C° 0.1 mm 2 mps 723 mmHg 92%
    15:00 +2°C° 0.1 mm 2 mps 723 mmHg 92%
    16:00 +2°C° 0.1 mm 2 mps 723 mmHg 92%
    17:00 +2°C° 0.3 mm 2 mps 724 mmHg 92%
    18:00 +2°C° 0.3 mm 2 mps 724 mmHg 93%
    19:00 +2°C° 0.3 mm 2 mps 724 mmHg 93%
    20:00 +2°C° 0.4 mm 2 mps 724 mmHg 94%
    21:00 +2°C° 0.4 mm 2 mps 725 mmHg 94%
    22:00 +2°C° 0.4 mm 2 mps 725 mmHg 95%
    23:00 +2°C° 0.4 mm 2 mps 725 mmHg 95%
    Show more